Location: Newark
(7.0858°N, 171.3717°E)
Time: 19:54:36
(UTC+00:00)

Tiros 1 - Pass Details

Date: 02 December 2020
Orbit: 630 x 663 km, 48.4° (Epoch: 18 January)

Event Time Altitude Azimuth Distance (km) Brightness Sun altitude
Rises 10:17:27 0° 336° (NNW) 2,942 - -56.0°
Reaches altitude 10° 10:20:00 10° 346° (NNW) 2,027 - -56.6°
Maximum altitude 10:24:09 32° 49° (NE) 1,098 - -57.5°
Drops below altitude 10° 10:28:17 10° 112° (ESE) 2,012 - -58.3°
Sets 10:30:48 0° 122° (ESE) 2,916 - -58.9°
